Tracking 30922 objects as of 2-Jul-2025
HD Live streaming from Space Station
objects crossing your sky now

ATLAS 41E DEB

Track ATLAS 41E DEB now!
10-day predictions


NORAD ID: 15615
Int'l Code: 1985-021E
Perigee: 696.9 km
Apogee: 758.4 km
Inclination: 107.8 °
Period: 99.2 minutes
Semi major axis: 7098 km
RCS: 0.0182 m2 (small)
Launch date: March 13, 1985
Source: United States (US)
Launch site: AIR FORCE WESTERN TEST RANGE (AFWTR)

Note: This is SATELLITE DEBRIS
Your satellite tracking list
STARLINK-4326
Track 1 satellite(s)




NASA's NSSDC Master Catalog

Two Line Element Set (TLE):
1 15615U 85021E   25182.16340620  .00000656  00000-0  19764-3 0  9991
2 15615 107.8157 258.0257 0043309 234.8901 185.5663 14.51570815117206
Source of the keplerian elements: AFSPC